Location: Unspecified
(0.0000°N, 0.0000°E)
Time: 17:55:26
(UTC+00:00)

Hubble Space Telescope - Pass Details

Date: 08 November 2025
Orbit: 482 x 485 km, 28.5° (Epoch: 06 November)

Event Time Altitude Azimuth Distance (km) Brightness Sun altitude
Rises 18:54:00 0° 288° (WNW) 2,521 5.1 -16.8°
Reaches altitude 10° 18:56:17 10° 281° (W) 1,644 4.2 -17.3°
Maximum altitude 18:59:51 40° 210° (SSW) 718 1.8 -18.2°
Enters shadow 19:02:32 16° 145° (SE) 1,326 2.6 -18.8°
